Regional Weather Roundup
Issued by NWS

Home | Current Version | Previous Version | Graphics & Text | Print | Product List | Glossary On
Versions: 1 2 3 4 5 6 7 8 9 10 11 12 13 14 15 16 17 18 19 20 21 22 23 24 25 26 27 28 29 30 31 32 33 34 35 36 37 38 39 40 41 42 43 44 45 46 47 48 49 50
000
ASUS43 KLOT 241708
RWRIL

ILLINOIS REGIONAL WEATHER ROUNDUP
NATIONAL WEATHER SERVICE CHICAGO/ROMEOVILLE IL
1100 AM CST FRI FEB 24 2017

NOTE: "FAIR" INDICATES FEW OR NO CLOUDS BELOW 12,000 FEET WITH NO
SIGNIFICANT WEATHER AND/OR OBSTRUCTIONS TO VISIBILITY.

* THESE STATIONS ARE NOT UNDER NWS QUALITY CONTROL. THEY ALSO MAY NOT
  REPORT WEATHER SUCH AS PRECIPITATION OR FOG.

ILZ001-002-007-009-015-016-024-241800-
NORTHWEST ILLINOIS

CITY           SKY/WX    TMP DP  RH WIND       PRES   REMARKS
MOLINE         CLOUDY    41  37  86 N6        29.49R FOG
STERLING*      LGT RAIN  40  38  93 NE9       29.46
$$

ILZ003-004-008-010-011-017-018-241800-
NORTH CENTRAL ILLINOIS

CITY           SKY/WX    TMP DP  RH WIND       PRES   REMARKS
ROCKFORD       DRIZZLE   38  35  89 NE17      29.50S WCI  28
FREEPORT*      CLOUDY    34  33  96 NE17G23   29.51S WCI  23
ROCHELLE*      CLOUDY    38  37  97 NE20G25   29.47R WCI  28
DE KALB*       CLOUDY    38  37  98 NE15      29.47S FOG     WCI  29
PERU*          CLOUDY    45  42  92 NE7       29.44S FOG
$$

ILZ005-006-012>014-019>023-241800-
NORTHEAST ILLINOIS

CITY           SKY/WX    TMP DP  RH WIND       PRES   REMARKS
CHICAGO-OHARE  LGT RAIN  39  36  89 N14       29.47S FOG     WCI  31
CHICAGO-MIDWAY CLOUDY    40  37  89 N8        29.47S FOG
AURORA         LGT RAIN  40  38  93 NE12      29.45S FOG
LANSING*       CLOUDY    42  42 100 CALM      29.47R FOG
JOLIET*        CLOUDY    46  45  95 N6        29.44F
WAUKEGAN       LGT RAIN  36  35  96 N12G24    29.49S VSB 1   WCI  28
DUPAGE AIRPORT LGT RAIN  38  36  92 NE9       29.46S FOG     WCI  31
KANKAKEE*      CLOUDY    64  57  77 SW20G25   29.45R
WHEELING       LGT RAIN  37  35  92 N13       29.49F FOG     WCI  29
MORRIS*        CLOUDY    46  44  93 N6        29.43S FOG
ROMEOVILLE*    CLOUDY    42  42 100 NE9       29.45S FOG
NORTHERLY ISL    N/A     39  38  96 N9          N/A  WCI  33
$$

LMZ740>746-241800-
SOUTHERN LAKE MICHIGAN

STATION/POSITION SKY/WX   TEMP    WIND        PRES    VSBY  WAVE
                          AIR SEA DIR/SP/G                  HT/PER
                          (F)     (DEG/KT/KT) (MB)    (MI)  (FT/S)
HARRISON CRIB              37     330/ 17/ 18   N/A
BURNHAM HARBOR             39     360/ 11/ 12   N/A
CALUMET HARBOR             38     330/  9/ 14  997.6F
BURNS HARBOR               38     250/  6/  7  998.6F
MICHIGAN CITY              43     240/  1/  2   N/A
$$

ILZ025>027-034>036-040-047-049-050-058-095>099-241800-
WEST-CENTRAL ILLINOIS

CITY           SKY/WX    TMP DP  RH WIND       PRES   REMARKS
QUINCY         CLOUDY    45  40  82 W14       29.55R
GALESBURG*     CLOUDY    41  41 100 W10       29.50R FOG
MACOMB*        CLOUDY    43  42  99 W16       29.53R FOG
JACKSONVILLE*  CLOUDY    49  47  92 W16G24    29.54R FOG
PITTSFIELD*    CLOUDY    47  45  90 W12G22    29.57R
$$

ILZ028>032-037-038-041>044-048-051>054-059>061-241800-
CENTRAL ILLINOIS

CITY           SKY/WX    TMP DP  RH WIND       PRES   REMARKS
PONTIAC        CLOUDY    67  59  76 SW25G32   29.42F
BLOOMINGTON    CLOUDY    64  56  75 SW22G33   29.45S
DECATUR        CLOUDY    65  54  67 SW21G30   29.48S
PEORIA         CLOUDY    52  48  86 W20G25    29.47R
LACON*         CLOUDY    53  49  87 NW3       29.42R
LINCOLN*       CLOUDY    57  51  80 W14G24    29.48R
SPRINGFIELD    CLOUDY    55  49  80 W22G33    29.51R
TAYLORVILLE    CLOUDY    63  55  76 SW21      29.49S
$$

ILZ033-039-045-046-055>057-062-063-241800-
EAST-CENTRAL ILLINOIS

CITY           SKY/WX    TMP DP  RH WIND       PRES   REMARKS
CHAMPAIGN      PTSUNNY   66  54  65 SW24G35   29.47S
RANTOUL*       PTSUNNY   67  58  71 SW23G30   29.47S
MATTOON        CLOUDY    66  56  70 SW15G25   29.51R
PARIS*         PTSUNNY   67  57  71 S20       29.52S
$$

ILZ079-100>102-241800-
SOUTHWEST ILLINOIS

CITY           SKY/WX    TMP DP  RH WIND       PRES   REMARKS
ALTON          CLOUDY    55  48  76 W21G28    29.55R
BELLEVILLE     PTSUNNY   68  56  65 SW17G23   29.50S
CAHOKIA*       CLOUDY    62  50  64 W16G26    29.54R
SPARTA*        PTSUNNY   68  54  61 SW15      29.55S
$$

ILZ064>066-069>071-074>076-080>082-084>086-088>090-092>094-241800-
SOUTH-CENTRAL ILLINOIS

CITY           SKY/WX    TMP DP  RH WIND       PRES   REMARKS
CARBONDALE     MOSUNNY   67  54  63 S23G30    29.56S
CAIRO*         MOSUNNY   68  55  62 SW22G32   29.62S
EFFINGHAM*     CLOUDY    67  56  67 S13G21    29.53F
MARION         PTSUNNY   70  54  56 S14G25    29.58F
MT. VERNON     LGT RAIN  67  55  65 S20       29.56R
CENTRALIA*     MOSUNNY   70  57  62 SW22G29   29.53S
SALEM*         PTSUNNY   69  55  59 SW17G25   29.53S
METROPOLIS*    MOSUNNY   72  53  50 SW18G28   29.62S
$$

ILZ067-068-072-073-078-083-087-091-241800-
SOUTHEAST ILLINOIS

CITY           SKY/WX    TMP DP  RH WIND       PRES   REMARKS
LAWRENCEVILLE  MOSUNNY   71  54  54 SW29G38   29.56S
FLORA*         MOSUNNY   71  56  59 SW18G24   29.54S
FAIRFIELD*     CLOUDY    68  55  61 SW12G18   29.55S
HARRISBURG*    SUNNY     71  55  56 SW25      29.59S
ROBINSON*      MOSUNNY   71  55  56 SW24G31   29.55S
CARMI*         SUNNY     71  54  53 SW23G33   29.57F
$$

ABBREVIATIONS USED IN REMARKS
   TC - TEMPERATURE IN CELSIUS
  WCI - WIND CHILL INDEX
   HX - HEAT INDEX
  VSB - VISIBILITY
$$




USA.gov is the U.S. government's official web portal to all federal, state and local government web resources and services.